TimeCDT,TemperatureF,Dew PointF,Humidity,Sea Level PressureIn,VisibilityMPH,Wind Direction,Wind SpeedMPH,Gust SpeedMPH,PrecipitationIn,Events,Conditions,WindDirDegrees,DateUTC
12:15 AM,80.6,71.6,74,29.93,10.0,South,9.2,-,N/A,,Clear,190,2013-06-26 05:15:00
12:35 AM,78.8,71.6,78,29.93,10.0,SSW,8.1,-,N/A,,Clear,200,2013-06-26 05:35:00
12:56 AM,78.8,71.6,78,29.93,10.0,South,6.9,-,N/A,,Clear,190,2013-06-26 05:56:00
1:15 AM,78.8,71.6,78,29.93,10.0,South,5.8,-,N/A,,Clear,190,2013-06-26 06:15:00
1:35 AM,78.8,71.6,78,29.92,10.0,South,9.2,-,N/A,,Clear,180,2013-06-26 06:35:00
1:55 AM,77.0,71.6,83,29.92,10.0,South,8.1,-,N/A,,Clear,190,2013-06-26 06:55:00
2:15 AM,77.0,71.6,83,29.91,10.0,South,8.1,-,N/A,,Clear,170,2013-06-26 07:15:00
2:35 AM,77.0,71.6,83,29.91,10.0,South,9.2,-,N/A,,Clear,170,2013-06-26 07:35:00
2:55 AM,77.0,71.6,83,29.90,10.0,South,10.4,-,N/A,,Clear,180,2013-06-26 07:55:00
3:16 AM,77.0,71.6,83,29.90,10.0,South,15.0,-,N/A,,Clear,180,2013-06-26 08:16:00
3:35 AM,77.0,71.6,83,29.89,10.0,South,13.8,-,N/A,,Clear,180,2013-06-26 08:35:00
3:55 AM,77.0,71.6,83,29.89,10.0,South,12.7,-,N/A,,Clear,180,2013-06-26 08:55:00
4:15 AM,77.0,71.6,83,29.89,10.0,South,12.7,-,N/A,,Clear,180,2013-06-26 09:15:00
4:35 AM,77.0,71.6,83,29.90,10.0,South,13.8,-,N/A,,Clear,190,2013-06-26 09:35:00
4:55 AM,78.8,71.6,78,29.90,10.0,South,12.7,-,N/A,,Clear,190,2013-06-26 09:55:00
5:16 AM,77.0,71.6,83,29.90,10.0,South,13.8,-,N/A,,Clear,190,2013-06-26 10:16:00
5:35 AM,77.0,73.4,89,29.91,10.0,South,12.7,-,N/A,,Clear,190,2013-06-26 10:35:00
5:55 AM,77.0,73.4,89,29.91,10.0,South,13.8,-,N/A,,Clear,190,2013-06-26 10:55:00
6:35 AM,78.8,73.4,83,29.92,10.0,South,16.1,20.7,N/A,,Clear,190,2013-06-26 11:35:00
6:55 AM,78.8,73.4,83,29.92,10.0,South,13.8,-,N/A,,Clear,190,2013-06-26 11:55:00
7:15 AM,78.8,73.4,83,29.92,10.0,SSW,16.1,-,N/A,,Clear,200,2013-06-26 12:15:00
7:35 AM,80.6,73.4,79,29.91,10.0,South,19.6,24.2,N/A,,Clear,190,2013-06-26 12:35:00
7:55 AM,80.6,73.4,79,29.91,10.0,South,19.6,-,N/A,,Clear,190,2013-06-26 12:55:00
8:15 AM,80.6,73.4,79,29.91,10.0,South,17.3,25.3,N/A,,Clear,190,2013-06-26 13:15:00
8:35 AM,82.4,73.4,74,29.91,10.0,SSW,21.9,-,N/A,,Clear,200,2013-06-26 13:35:00
8:55 AM,82.4,73.4,74,29.92,10.0,SSW,18.4,-,N/A,,Clear,200,2013-06-26 13:55:00
9:15 AM,82.4,73.4,74,29.91,10.0,SSW,19.6,26.5,N/A,,Clear,200,2013-06-26 14:15:00
9:36 AM,84.2,73.4,70,29.90,10.0,SSW,20.7,25.3,N/A,,Clear,210,2013-06-26 14:36:00
9:55 AM,84.2,73.4,70,29.89,10.0,SSW,20.7,25.3,N/A,,Clear,200,2013-06-26 14:55:00
10:15 AM,84.2,73.4,70,29.90,10.0,SSW,20.7,24.2,N/A,,Clear,200,2013-06-26 15:15:00
10:35 AM,82.4,73.4,74,29.92,10.0,SSW,15.0,-,N/A,Thunderstorm,Clear,210,2013-06-26 15:35:00
10:55 AM,82.4,73.4,74,29.93,10.0,WSW,15.0,-,N/A,,Clear,240,2013-06-26 15:55:00
11:15 AM,82.4,73.4,74,29.91,10.0,SSW,11.5,-,N/A,,Clear,210,2013-06-26 16:15:00
11:35 AM,84.2,73.4,70,29.91,10.0,South,13.8,-,N/A,,Clear,190,2013-06-26 16:35:00
11:55 AM,87.8,71.6,58,29.91,10.0,SSW,20.7,-,N/A,,Clear,200,2013-06-26 16:55:00
12:15 PM,89.6,71.6,55,29.90,10.0,SSW,24.2,29.9,N/A,,Clear,200,2013-06-26 17:15:00
12:36 PM,89.6,71.6,55,29.90,10.0,SSW,24.2,-,N/A,,Clear,200,2013-06-26 17:36:00
12:55 PM,89.6,71.6,55,29.90,10.0,SW,20.7,25.3,N/A,,Clear,220,2013-06-26 17:55:00
1:15 PM,91.4,71.6,52,29.90,10.0,SW,21.9,-,N/A,,Clear,230,2013-06-26 18:15:00
1:35 PM,91.4,71.6,52,29.89,10.0,SW,19.6,26.5,N/A,,Clear,230,2013-06-26 18:35:00
1:55 PM,91.4,71.6,52,29.89,10.0,SSW,18.4,25.3,N/A,,Clear,210,2013-06-26 18:55:00
2:15 PM,91.4,73.4,55,29.88,10.0,SSW,18.4,24.2,N/A,,Clear,200,2013-06-26 19:15:00
2:35 PM,93.2,73.4,52,29.87,10.0,SW,17.3,23.0,N/A,,Clear,230,2013-06-26 19:35:00
2:55 PM,93.2,71.6,49,29.86,10.0,SW,19.6,25.3,N/A,,Clear,220,2013-06-26 19:55:00
3:15 PM,93.2,73.4,52,29.85,10.0,SW,13.8,19.6,N/A,,Clear,220,2013-06-26 20:15:00
3:35 PM,93.2,73.4,52,29.84,10.0,WSW,19.6,25.3,N/A,,Clear,240,2013-06-26 20:35:00
3:55 PM,93.2,71.6,49,29.84,10.0,WSW,15.0,-,N/A,,Clear,240,2013-06-26 20:55:00
4:15 PM,93.2,71.6,49,29.84,10.0,SW,18.4,23.0,N/A,,Clear,230,2013-06-26 21:15:00
4:35 PM,93.2,71.6,49,29.83,10.0,SW,17.3,25.3,N/A,,Clear,230,2013-06-26 21:35:00
4:56 PM,93.2,71.6,49,29.83,10.0,SW,21.9,-,N/A,,Clear,220,2013-06-26 21:56:00
5:15 PM,93.2,71.6,49,29.82,10.0,SW,18.4,24.2,N/A,,Clear,230,2013-06-26 22:15:00
5:35 PM,93.2,71.6,49,29.82,10.0,SW,17.3,-,N/A,,Clear,230,2013-06-26 22:35:00
5:56 PM,93.2,73.4,52,29.82,10.0,SSW,17.3,-,N/A,,Clear,210,2013-06-26 22:56:00
6:15 PM,93.2,73.4,52,29.82,10.0,SW,17.3,-,N/A,,Clear,220,2013-06-26 23:15:00
6:35 PM,91.4,73.4,55,29.82,10.0,SW,16.1,-,N/A,,Clear,220,2013-06-26 23:35:00
6:56 PM,91.4,73.4,55,29.83,10.0,SW,12.7,-,N/A,,Clear,230,2013-06-26 23:56:00
7:15 PM,91.4,73.4,55,29.83,10.0,SW,11.5,-,N/A,,Clear,230,2013-06-27 00:15:00
7:35 PM,89.6,73.4,59,29.82,10.0,SW,12.7,-,N/A,,Clear,220,2013-06-27 00:35:00
7:55 PM,89.6,73.4,59,29.81,10.0,SW,12.7,-,N/A,,Clear,220,2013-06-27 00:55:00
8:15 PM,87.8,73.4,62,29.82,10.0,SSW,10.4,-,N/A,,Clear,210,2013-06-27 01:15:00
8:35 PM,87.8,73.4,62,29.82,10.0,SSW,11.5,-,N/A,,Clear,210,2013-06-27 01:35:00
8:55 PM,87.8,73.4,62,29.82,10.0,SSW,13.8,-,N/A,,Clear,210,2013-06-27 01:55:00
9:15 PM,87.8,73.4,62,29.82,10.0,SSW,12.7,-,N/A,,Clear,210,2013-06-27 02:15:00
9:35 PM,86.0,73.4,66,29.83,10.0,SSW,13.8,-,N/A,,Clear,210,2013-06-27 02:35:00
9:55 PM,86.0,73.4,66,29.83,10.0,SSW,15.0,-,N/A,,Clear,210,2013-06-27 02:55:00
10:16 PM,84.2,73.4,70,29.84,10.0,SSW,12.7,-,N/A,,Clear,210,2013-06-27 03:16:00
10:35 PM,84.2,73.4,70,29.84,10.0,SW,16.1,-,N/A,,Clear,220,2013-06-27 03:35:00
10:55 PM,84.2,73.4,70,29.83,10.0,SW,16.1,-,N/A,,Clear,220,2013-06-27 03:55:00
11:15 PM,82.4,73.4,74,29.84,10.0,SW,16.1,-,N/A,,Clear,220,2013-06-27 04:15:00
11:35 PM,82.4,75.2,79,29.85,10.0,SW,11.5,-,N/A,,Clear,220,2013-06-27 04:35:00
11:55 PM,82.4,75.2,79,29.85,10.0,SW,9.2,-,N/A,,Clear,230,2013-06-27 04:55:00